{"data":{"norad_id":45746,"epoch":"2026-09-20T00:50:07.538208Z","epoch_age_seconds":58489,"freshness":"FRESH","line1":"1 45746U 20038S   26263.03480947  .00037000  00000+0  34855-3 0  9990","line2":"2 45746  53.0163 275.2876 0003437  64.1737 295.9632 15.66736878347847","mean_motion":15.66736878,"eccentricity":0.0003437,"inclination_deg":53.0163,"raan_deg":275.2876,"arg_perigee_deg":64.1737,"mean_anomaly_deg":295.9632,"bstar":0.00034855,"rev_number":34784,"period_min":91.910774567215,"perigee_km":365.92940638195,"apogee_km":370.56687152647,"semimajor_km":6746.3851389542,"source":"CELESTRAK","updated_at":"2026-09-20T09:00:38.456450Z"}}